Regional Weather Roundup
Issued by NWS

Home | Current Version | Previous Version | Graphics & Text | Print | Product List | Glossary On
Versions: 1 2 3 4 5 6 7 8 9 10 11 12 13 14 15 16 17 18 19 20 21 22 23 24 25 26 27 28 29 30 31 32 33 34 35 36 37 38 39 40 41 42 43 44 45 46 47 48 49 50
000
ASUS43 KLMK 211602
RWRKY
KENTUCKY REGIONAL WEATHER ROUNDUP
NATIONAL WEATHER SERVICE LOUISVILLE KY
1200 PM EDT SAT APR 21 2018

NOTE "FAIR" INDICATES FEW OR NO CLOUDS BELOW 12,000 FEET
WITH NO SIGNIFICANT WEATHER AND/OR OBSTRUCTIONS TO VISIBILITY.

KYZ001>023-026-027-061>063-070>075-211700-
WESTERN AND SOUTH CENTRAL KENTUCKY

CITY           SKY/WX    TMP DP  RH WIND       PRES   REMARKS
PADUCAH        FAIR      63  37  38 SE6       30.29F
HENDERSON      FAIR      62  34  35 NE9       30.35F
OWENSBORO      FAIR      63  30  28 E6        30.35F
HOPKINSVILLE   FAIR      63  35  35 E6        30.31F
BOWLING GREEN  FAIR      64  36  35 VRB5      30.34F
GLASGOW        NOT AVBL
$$

KYZ024-025-028>034-038-045-046-053-211700-
NORTH CENTRAL KENTUCKY

CITY           SKY/WX    TMP DP  RH WIND       PRES   REMARKS
LOUISVILLE/SDF PTSUNNY   61  28  28 E6        30.38F
LOUISVILLE/LOU FAIR      60  30  32 E10       30.38F
FORT KNOX      FAIR      61  27  27 E8        30.36F
$$

KYZ035>037-039>044-047>052-055>060-089>105-211700-
NORTHEAST KENTUCKY

CITY           SKY/WX    TMP DP  RH WIND       PRES   REMARKS
LEXINGTON      FAIR      59  28  30 E5        30.39F
COVINGTON      PTSUNNY   56  22  26 E7        30.40F
FRANKFORT      FAIR      58  28  32 E9        30.38F
$$

KYZ054-064>069-076>088-106>120-211700-
SOUTHEAST KENTUCKY

CITY           SKY/WX    TMP DP  RH WIND       PRES   REMARKS
JACKSON        FAIR      61  25  25 N5        30.37F
LONDON         FAIR      61  29  29 VRB3      30.36F
SOMERSET       NOT AVBL
MIDDLESBORO    FAIR      64  33  32 CALM      30.36F
MONTICELLO     FAIR      63  34  33 VRB5      30.37S
$$





USA.gov is the U.S. government's official web portal to all federal, state and local government web resources and services.